[[{"header":{"parameterUnit":"m.s-1","parameterCategory":1,"la1":30.2991,"la2":30.254,"lo1":-89.0895,"lo2":-89.0444,"dy":0.0017,"dx":0.0017,"nx":28,"ny":28,"refTime":"2024-06-16T09:00:00:Z","depth":0,"parameterNumber":2,"parameterNumberName":"U-component_of_WINDS"},"data":[0,0,0,0,0,0,0,0,0,0,0,0,0,0,0,0,0,0,0,0,0,0,0,0,0,0,0,0,0,0,0,0,0,0,0,0,0,0,0,0,0,0,0,0,0,0,0,0,0,0,0,0,0,0,0,0,0,0,-3.1769,-3.177,0,-3.1834,-3.1835,-3.1835,-3.1785,-3.1783,-3.1781,-3.1779,-3.1843,-3.1847,-3.1851,0,0,0,0,0,0,0,0,0,0,0,0,0,-3.1599,-3.1603,-3.1769,-3.177,-3.1771,-3.1834,-3.1835,-3.1836,-3.1786,-3.1783,-3.178,-3.1778,-3.1842,-3.1847,-3.1851,0,0,0,0,0,0,0,0,0,0,0,0,0,-3.167,-3.1604,-3.1769,-3.1753,-3.1753,-3.1834,-3.1835,-3.1836,-3.1786,-3.1783,-3.178,-3.1777,-3.1841,-3.1846,-3.1852,-3.1951,0,0,-3.1869,-3.1871,0,0,0,0,0,0,0,0,-3.1666,-3.1676,-3.1755,-3.1755,-3.1754,-3.1798,-3.1799,-3.1874,-3.1787,-3.1773,-3.1779,-3.1775,-3.1831,-3.1837,-3.1856,-3.1954,-3.1957,-3.1869,-3.1873,-3.1875,-3.1877,0,0,0,0,0,0,0,-3.1661,-3.1673,-3.1795,-3.1756,-3.1755,-3.1742,-3.1749,-3.1813,-3.1819,-3.1774,-3.1771,-3.1779,-3.183,-3.1851,-3.1857,-3.1958,-3.1869,-3.1874,-3.1878,-3.188,-3.2139,-3.2143,0,0,0,0,0,0,-3.1658,-3.1669,-3.1792,-3.1797,-3.1701,-3.1748,-3.1755,-3.1787,-3.1819,-3.182,-3.1782,-3.1777,-3.1843,-3.1851,-3.186,-3.1977,-3.1875,-3.188,-3.1883,-3.2136,-3.214,-3.2144,0,0,0,0,0,0,-3.1654,-3.1669,-3.179,-3.1732,-3.1746,-3.1755,-3.1791,-3.179,-3.1811,-3.1825,-3.1825,-3.1802,-3.1841,-3.1852,-3.1929,-3.1978,-3.1883,-3.1888,-3.2132,-3.2137,-3.2142,-3.2213,0,0,0,0,0,0,-3.165,-3.1668,-3.1706,-3.1733,-3.175,-3.1859,-3.1794,-3.1794,-3.1821,-3.1815,-3.1844,-3.1845,-3.1839,-3.1921,-3.1934,-3.1984,-3.1892,-3.2127,-3.2134,-3.214,-3.2206,-3.222,-3.2232,0,0,0,0,0,-3.1644,-3.1724,-3.1709,-3.1724,-3.1798,-3.1862,-3.1871,-3.1863,-3.1826,-3.1863,-3.1872,-3.1845,-3.1971,-3.1929,-3.1944,-3.1996,-3.2124,-3.2132,-3.214,-3.22,-3.2217,-3.2232,0,0,0,0,0,0,-3.1702,-3.1727,-3.171,-3.1801,-3.183,-3.1853,-3.1901,-3.1881,-3.192,-3.1912,-3.19,-3.1907,-3.1987,-3.2,-3.1952,-3.2094,-3.2041,-3.2053,-3.2082,-3.2099,-3.2111,-3.2106,-3.1897,0,0,0,0,0,-3.1725,-3.1776,-3.1795,-3.1873,-3.1888,-3.1892,-3.192,-3.1911,-3.194,-3.1951,-3.1965,-3.1994,-3.204,-3.207,-3.2113,-3.2208,-3.2213,-3.2252,-3.2265,-3.2275,-3.2285,-3.2335,-3.2352,-3.217,-3.217,-3.217,0,0,-3.1774,-3.1794,-3.1826,-3.1885,-3.1906,-3.1958,-3.1903,-3.196,-3.1998,-3.196,-3.2033,-3.2045,-3.2075,-3.2162,-3.22,-3.2174,-3.2336,-3.2286,-3.2294,-3.2297,-3.2345,-3.2362,-3.2378,-3.2175,-3.2174,-3.2174,0,0,-3.1888,-3.191,-3.1977,-3.1999,-3.2032,-3.2034,-3.205,-3.2077,-3.2083,-3.2157,-3.2129,-3.2174,-3.2254,-3.2277,-3.2299,-3.2424,-3.2399,-3.2438,-3.2505,-3.2554,-3.2568,-3.2581,-3.2624,-3.264,-3.2448,-3.2448,-3.2448,0,-3.1944,-3.2022,-3.2013,-3.2073,-3.2099,-3.2068,-3.2136,-3.2158,-3.2203,-3.2221,-3.2192,-3.2292,-3.231,-3.2401,-3.2431,-3.2451,-3.2468,-3.2434,-3.2567,-3.258,-3.2591,-3.2632,-3.2649,-3.2452,-3.2452,-3.2451,-3.2451,0,-3.2089,-3.2143,-3.2193,-3.2238,-3.227,-3.2334,-3.2334,-3.2367,-3.2356,-3.2362,-3.2437,-3.2458,-3.2505,-3.2526,-3.2516,-3.2616,-3.2598,-3.2569,-3.2515,-3.2613,-3.2651,-3.2667,-3.2459,-3.2457,-3.2456,-3.2455,0,0,-3.224,-3.228,-3.2299,-3.2318,-3.2353,-3.2394,-3.2456,-3.2502,-3.2531,-3.2564,-3.2614,-3.2683,-3.2655,-3.2681,-3.2673,-3.2716,-3.2812,-3.2681,-3.2681,-3.2703,-3.2922,-3.2943,-3.2962,-3.2797,-3.28,-3.2802,-3.2919,0,-3.2355,-3.2463,-3.2458,-3.2558,-3.2608,-3.258,-3.2633,-3.266,-3.2667,-3.2709,-3.2717,-3.2765,-3.2726,-3.2741,-3.2783,-3.2792,-3.2856,-3.2783,-3.2843,-3.2845,-3.2834,-3.2982,-3.3004,-3.3113,-3.2934,-3.2937,-3.2938,0,-3.2504,-3.2542,-3.2648,-3.2675,-3.2695,-3.2744,-3.2786,-3.2827,-3.2857,-3.2858,-3.2887,-3.2872,-3.2934,-3.2881,-3.2965,-3.2916,-3.294,-3.2948,-3.2952,-3.2956,-3.2896,-3.2988,-3.3148,-3.3164,-3.2962,-3.296,-3.2959,0,-3.2602,-3.268,-3.2753,-3.2771,-3.2805,-3.2839,-3.2855,-3.2881,-3.2909,-3.2946,-3.2964,-3.3008,-3.3031,-3.3065,-3.3062,-3.3024,-3.3147,-3.3094,-3.3149,-3.3149,-3.3175,-3.3173,-3.3339,-3.3194,-3.3193,-3.3193,-3.3193,0,-3.2731,-3.2796,-3.2798,-3.2843,-3.2915,-3.2908,-3.298,-3.2991,-3.3015,-3.3061,-3.304,-3.3084,-3.3078,-3.3122,-3.312,-3.3189,-3.32,-3.3203,-3.3201,-3.3204,-3.3203,-3.3218,-3.321,-3.3197,-3.3196,-3.3196,-3.3195,0,-3.2852,-3.2856,-3.2933,-3.2959,-3.2967,-3.3019,-3.3041,-3.3083,-3.3089,-3.3147,-3.316,-3.3169,-3.3219,-3.322,-3.3278,-3.3277,-3.3361,-3.3352,-3.3351,-3.3349,-3.3403,-3.3398,-3.3584,-3.3607,-3.3448,-3.3449,-3.3451,0,-3.2932,-3.2982,-3.3014,-3.3043,-3.3061,-3.3109,-3.3138,-3.3133,-3.3164,-3.3202,-3.3239,-3.3288,-3.3326,-3.3408,-3.3419,-3.3463,-3.3453,-3.3515,-3.3459,-3.346,-3.3452,-3.3449,-3.3453,-3.3526,-3.3527,-3.3529,-3.353,0,-3.3075,-3.3075,-3.3118,-3.3161,-3.3197,-3.3231,-3.3262,-3.3288,-3.3286,-3.3322,-3.3374,-3.3404,-3.3463,-3.3511,-3.3554,-3.3569,-3.3549,-3.3548,-3.3563,-3.3565,-3.3562,-3.3563,-3.3379,-3.3543,-3.3542,-3.3541,-3.354,-3.354,-3.3178,-3.322,-3.3249,-3.3297,-3.3321,-3.3351,-3.3392,-3.3403,-3.3446,-3.3494,-3.3488,-3.3545,-3.3573,-3.3629,-3.3648,-3.3692,-3.367,-3.3692,-3.3697,-3.3702,-3.3708,-3.3557,-3.37,-3.37,-3.3699,-3.3699,-3.3699,0,-3.3318,-3.3335,-3.338,-3.3425,-3.3463,-3.3443,-3.3476,-3.3509,-3.356,-3.3588,-3.3627,-3.3686,-3.3732,-3.3747,-3.3793,-3.3825,-3.3817,-3.3837,-3.3833,-3.3837,-3.3725,-3.3707,-3.3842,-3.3842,-3.3842,-3.3842,-3.3842,-3.3842,-3.3395,-3.3466,-3.3469,-3.3552,-3.3568,-3.3624,-3.3645,-3.3673,-3.3695,-3.3762,-3.3801,-3.3811,-3.3834,-3.388,-3.3922,-3.3925,-3.3942,-3.3965,-3.3965,-3.386,-3.3845,-3.3831,-3.3814,-3.397,-3.397,-3.4073,-3.4074,-3.4074]},{"header":{"parameterUnit":"m.s-1","parameterCategory":1,"la1":30.2991,"la2":30.254,"lo1":-89.0895,"lo2":-89.0444,"dy":0.0017,"dx":0.0017,"nx":28,"ny":28,"refTime":"2024-06-16T09:00:00:Z","depth":0,"parameterNumber":3,"parameterNumberName":"V-component_of_WINDS"},"data":[0,0,0,0,0,0,0,0,0,0,0,0,0,0,0,0,0,0,0,0,0,0,0,0,0,0,0,0,0,0,0,0,0,0,0,0,0,0,0,0,0,0,0,0,0,0,0,0,0,0,0,0,0,0,0,0,0,0,1.2068,1.2069,0,1.2132,1.2133,1.2134,1.2159,1.2158,1.2158,1.2158,1.2222,1.2224,1.2225,0,0,0,0,0,0,0,0,0,0,0,0,0,1.1965,1.1967,1.2068,1.2069,1.207,1.2132,1.2133,1.2134,1.2159,1.2158,1.2158,1.2158,1.2221,1.2223,1.2226,0,0,0,0,0,0,0,0,0,0,0,0,0,1.2018,1.1967,1.2068,1.209,1.2092,1.2132,1.2133,1.2134,1.2159,1.2158,1.2158,1.2158,1.222,1.2223,1.2226,1.2249,0,0,1.2234,1.2236,0,0,0,0,0,0,0,0,1.2015,1.2021,1.2086,1.2088,1.2091,1.2137,1.212,1.2173,1.2159,1.2133,1.2158,1.2158,1.2194,1.2199,1.2211,1.2252,1.2254,1.2235,1.2236,1.2238,1.2238,0,0,0,0,0,0,0,1.2011,1.2019,1.2093,1.2086,1.209,1.2096,1.2103,1.213,1.2164,1.2135,1.2137,1.2145,1.2195,1.2209,1.2213,1.2255,1.2235,1.2237,1.2239,1.224,1.2318,1.2319,0,0,0,0,0,0,1.2004,1.2016,1.2091,1.2095,1.2051,1.2098,1.2106,1.2123,1.2164,1.217,1.2145,1.2146,1.2204,1.221,1.2215,1.2245,1.2238,1.224,1.2242,1.2318,1.2319,1.2319,0,0,0,0,0,0,1.2002,1.201,1.2089,1.2056,1.2067,1.21,1.2119,1.2124,1.2137,1.2171,1.2177,1.2153,1.2204,1.2211,1.2241,1.2248,1.2241,1.2244,1.2318,1.2318,1.2319,1.2304,0,0,0,0,0,0,1.1999,1.201,1.2019,1.2056,1.2068,1.2113,1.2119,1.2126,1.2142,1.2144,1.218,1.2185,1.2204,1.2236,1.2243,1.2251,1.2246,1.2317,1.2318,1.2319,1.2304,1.2305,1.2305,0,0,0,0,0,1.1995,1.2011,1.2019,1.2028,1.208,1.2114,1.212,1.2142,1.2143,1.2152,1.2174,1.2184,1.2246,1.2239,1.2247,1.2256,1.2317,1.2318,1.2318,1.2304,1.2305,1.2305,0,0,0,0,0,0,1.1973,1.2017,1.2025,1.2055,1.208,1.2118,1.213,1.2142,1.2167,1.2167,1.2193,1.2201,1.2228,1.2245,1.2237,1.2281,1.2282,1.2285,1.2268,1.2269,1.2269,1.2264,1.2249,0,0,0,0,0,1.1972,1.1995,1.2032,1.2054,1.2067,1.2096,1.2111,1.2126,1.2154,1.2164,1.2188,1.2214,1.2239,1.2255,1.228,1.2307,1.2316,1.2318,1.2318,1.2318,1.2319,1.2336,1.2337,1.2322,1.2322,1.2322,0,0,1.1969,1.1996,1.2009,1.2051,1.2072,1.2096,1.2105,1.213,1.2148,1.2168,1.2197,1.2216,1.2246,1.2275,1.2288,1.229,1.2326,1.2319,1.2319,1.232,1.2337,1.2338,1.234,1.2323,1.2322,1.2322,0,0,1.1976,1.1999,1.202,1.2042,1.2075,1.2095,1.21,1.2136,1.2149,1.2179,1.2195,1.2217,1.2259,1.2281,1.2297,1.2314,1.2324,1.2321,1.2321,1.2337,1.2338,1.2339,1.2345,1.2347,1.2323,1.2323,1.2323,0,1.1968,1.2005,1.2029,1.2054,1.2072,1.2092,1.2114,1.2134,1.2173,1.2185,1.2186,1.2241,1.2263,1.2297,1.2301,1.2314,1.232,1.2317,1.2336,1.2337,1.2339,1.2345,1.2347,1.2322,1.2322,1.2322,1.2322,0,1.1994,1.2019,1.2033,1.2071,1.2091,1.2113,1.2141,1.2158,1.2171,1.2191,1.2221,1.2249,1.228,1.2289,1.2302,1.2326,1.2326,1.2331,1.2333,1.2339,1.2346,1.2348,1.2321,1.2322,1.2322,1.2322,0,0,1.1988,1.204,1.2045,1.2063,1.2102,1.2121,1.2145,1.2177,1.2191,1.2218,1.2238,1.2275,1.2281,1.2299,1.2315,1.2329,1.2341,1.2333,1.2334,1.2333,1.2369,1.2364,1.2366,1.2348,1.2349,1.2349,1.2366,0,1.2,1.2044,1.2068,1.2102,1.2126,1.2147,1.2168,1.2193,1.2212,1.2235,1.2256,1.2282,1.2288,1.2299,1.2314,1.2336,1.2348,1.2335,1.2368,1.2368,1.2359,1.237,1.2364,1.2379,1.2369,1.2369,1.237,0,1.202,1.2047,1.2084,1.2121,1.2132,1.215,1.2182,1.2204,1.2233,1.2246,1.2268,1.2284,1.231,1.231,1.2346,1.2337,1.2352,1.2365,1.2366,1.237,1.2369,1.2373,1.2384,1.2386,1.2374,1.2373,1.2373,0,1.2012,1.2058,1.2087,1.2101,1.2145,1.2157,1.2176,1.2206,1.2223,1.2251,1.2263,1.2292,1.2308,1.2331,1.2354,1.2352,1.2388,1.239,1.24,1.2399,1.2406,1.2405,1.2419,1.2416,1.2416,1.2416,1.2416,0,1.2023,1.2045,1.2084,1.2101,1.2126,1.2153,1.2177,1.2197,1.2224,1.2245,1.2265,1.2284,1.2314,1.2338,1.2356,1.2384,1.2391,1.2402,1.2407,1.24,1.2399,1.241,1.2409,1.2416,1.2416,1.2416,1.2416,0,1.2018,1.2045,1.2077,1.2116,1.2127,1.2143,1.2177,1.2194,1.2215,1.2242,1.225,1.2282,1.2311,1.2337,1.2375,1.2387,1.2415,1.2421,1.2405,1.2408,1.2416,1.2414,1.2437,1.2441,1.2435,1.2435,1.2435,0,1.2023,1.2041,1.2082,1.2098,1.2117,1.2142,1.2161,1.2188,1.2207,1.2243,1.2256,1.2286,1.2312,1.2357,1.2384,1.2413,1.242,1.2426,1.2424,1.2417,1.242,1.2418,1.242,1.2425,1.2425,1.2425,1.2425,0,1.203,1.2042,1.2069,1.21,1.2122,1.2148,1.2174,1.2186,1.2218,1.2238,1.2268,1.2288,1.2328,1.2358,1.239,1.2409,1.2422,1.2426,1.2429,1.2423,1.2413,1.2418,1.2405,1.2425,1.2425,1.2425,1.2425,1.2425,1.203,1.2047,1.2079,1.2108,1.2131,1.2155,1.2174,1.2197,1.2223,1.2258,1.2272,1.2303,1.2333,1.2378,1.2397,1.2422,1.2424,1.2429,1.2431,1.2432,1.243,1.2409,1.2428,1.2428,1.2428,1.2428,1.2428,0,1.2038,1.2059,1.2086,1.2123,1.2145,1.2157,1.2187,1.2205,1.2232,1.2259,1.2285,1.232,1.2349,1.2379,1.241,1.2424,1.2431,1.2431,1.243,1.2434,1.2426,1.242,1.2425,1.2425,1.2425,1.2425,1.2425,1.2425,1.2044,1.2073,1.209,1.2131,1.2152,1.2183,1.2199,1.2222,1.2244,1.2282,1.2307,1.2326,1.2355,1.2388,1.2416,1.2424,1.2435,1.2433,1.2443,1.2435,1.2435,1.2435,1.2429,1.2435,1.2435,1.2448,1.2449,1.2449]}]]